1512460801.12,52851,2.5,73100.5,-13.67,-14.15,-14.23,0,*6D
1512460802.37,52852,2.5,73096.5,-13.67,-14.23,-14.29,0,*61
1512460803.62,52853,2.5,73106.5,-13.67,-14.15,-14.23,0,*6F
1512460804.84,52854,2.5,73116.0,-13.69,-14.11,-14.23,0,*62
1512460806.08,52855,2.56,73122.5,-13.71,-14.19,-14.29,0,*68
1512460807.3,52856,2.5,73110.8,-13.69,-14.15,-14.23,0,*64
1512460808.53,52857,2.5,73090.3,-13.69,-14.15,-14.15,0,*60
1512460809.74,52858,2.5,73086.8,-13.69,-14.11,-14.11,0,*6F
1512460811.01,52859,2.5,73088.5,-13.71,-14.05,-14.15,0,*66
1512460812.25,52860,2.5,73086.3,-13.69,-14.01,-14.11,0,*65
1512460813.54,52861,2.5,73078.3,-13.71,-14.01,-14.05,0,*68
1512460814.81,52862,2.5,73076.8,-13.69,-14.01,-14.01,0,*66
1512460816.09,52863,2.5,73082.0,-13.69,-13.97,-13.97,0,*67
1512460817.35,52864,2.5,73086.0,-13.71,-13.93,-14.01,0,*65
1512460818.61,52865,2.5,73088.8,-13.69,-13.83,-13.87,0,*65
1512460819.87,52866,2.5,73094.5,-13.69,-13.87,-13.87,0,*62
1512460821.13,52867,2.5,73086.8,-13.69,-13.87,-13.83,0,*67
1512460822.4,52868,2.5,73082.5,-13.69,-13.83,-13.83,0,*6C
1512460823.66,52869,2.5,73076.5,-13.69,-13.87,-13.87,0,*6D
1512460824.9,52870,2.5,73086.8,-13.69,-13.83,-13.73,0,*6A
1512460826.14,52871,2.5,73088.0,-13.69,-13.83,-13.73,0,*6B
1512460827.37,52872,2.5,73088.3,-13.65,-13.79,-13.69,0,*6A
1512460828.64,52873,2.5,73086.0,-13.67,-13.83,-13.73,0,*67
1512460829.93,52874,2.5,73086.0,-13.67,-13.83,-13.83,0,*6F
1512460831.22,52875,2.5,73082.8,-13.67,-13.87,-14.01,0,*67
1512460832.53,52876,2.5,73078.8,-13.67,-14.01,-14.01,0,*6D
1512460833.77,52877,2.5,73086.3,-13.67,-14.11,-14.15,0,*68
1512460835.02,52878,2.5,73082.0,-13.67,-14.11,-14.15,0,*67
1512460836.28,52879,2.5,73076.0,-13.67,-14.29,-14.43,0,*6E
1512460837.54,52880,2.5,73074.0,-13.67,-14.29,-14.43,0,*68
1512460838.78,52881,2.5,73068.0,-13.69,-14.37,-14.51,0,*6B
1512460840.02,52882,2.5,73074.0,-13.69,-14.37,-14.51,0,*68
1512460841.29,52883,2.5,73072.0,-13.69,-14.43,-14.51,0,*6A
1512460842.5,52884,2.5,73074.5,-13.69,-14.37,-14.37,0,*6E
1512460843.74,52885,2.56,73080.0,-13.69,-14.37,-14.51,0,*6F
1512460845.0,52886,2.5,73076.3,-13.69,-14.43,-14.43,0,*6C
1512460846.24,52887,2.5,73082.8,-13.69,-14.37,-14.43,0,*6E
1512460847.52,52888,2.5,73074.0,-13.71,-14.43,-14.43,0,*6B
1512460848.81,52889,2.5,73080.3,-13.71,-14.43,-14.47,0,*6E
1512460850.09,52890,2.5,73082.5,-13.71,-14.43,-14.43,0,*62
1512460851.35,52891,2.5,73096.3,-13.75,-14.33,-14.43,0,*60
1512460852.61,52892,2.5,73090.8,-13.75,-14.33,-14.43,0,*63
1512460853.85,52893,2.5,73094.0,-13.75,-14.29,-14.33,0,*6E
1512460855.09,52894,2.5,73098.8,-13.71,-14.29,-14.33,0,*6D
1512460856.35,52895,2.5,73094.0,-13.77,-14.43,-14.43,0,*61
1512460857.6,52896,2.5,73096.0,-13.71,-14.33,-14.43,0,*63
1512460858.86,52897,2.5,73100.5,-13.75,-14.33,-14.43,0,*66
1512460860.13,52898,2.5,73102.0,-13.75,-14.29,-14.47,0,*66
1512460861.39,52899,2.5,73102.0,-13.75,-14.33,-14.43,0,*68
1512460862.66,52900,2.5,73106.3,-13.75,-14.43,-14.33,0,*69
1512460863.9,52901,2.5,73104.3,-13.75,-14.33,-14.33,0,*6F
1512460865.11,52902,2.5,73100.5,-13.77,-14.33,-14.37,0,*6A
1512460866.35,52903,2.5,73106.8,-13.75,-14.29,-14.29,0,*6D
1512460867.59,52904,2.5,73112.0,-13.75,-14.29,-14.33,0,*61
1512460868.81,52905,2.5,73112.3,-13.77,-14.37,-14.33,0,*6D
1512460870.05,52906,2.5,73112.5,-13.75,-14.29,-14.33,0,*63
1512460871.27,52907,2.5,73116.0,-13.77,-14.29,-14.29,0,*6B
1512460872.51,52908,2.5,73106.5,-13.75,-14.29,-14.33,0,*6D
1512460873.74,52909,2.5,73104.8,-13.77,-14.33,-14.43,0,*62
1512460874.98,52910,2.5,73098.3,-13.75,-14.29,-14.33,0,*64
1512460876.23,52911,2.56,73104.5,-13.77,-14.37,-14.51,0,*6C
1512460877.48,52912,2.5,73118.3,-13.77,-14.37,-14.47,0,*68
1512460878.76,52913,2.5,73108.8,-13.77,-14.47,-14.47,0,*6E
1512460880.04,52914,2.5,73108.3,-13.77,-14.47,-14.47,0,*69
1512460881.28,52915,2.5,73094.0,-13.77,-14.33,-14.51,0,*6C
1512460882.5,52916,2.5,73112.3,-13.77,-14.33,-14.33,0,*6B
1512460883.71,52917,2.5,73112.8,-13.77,-14.33,-14.33,0,*6A
1512460884.93,52918,2.5,73116.8,-13.77,-14.19,-14.19,0,*65
1512460886.15,52919,2.5,73122.3,-13.77,-14.19,-14.19,0,*64
1512460887.37,52920,2.5,73118.5,-13.77,-14.11,-14.11,0,*6E
1512460888.64,52921,2.5,73118.5,-13.77,-14.05,-14.05,0,*6F
1512460889.87,52922,2.5,73122.5,-13.75,-13.93,-13.93,0,*6E
1512460891.08,52923,2.5,73116.5,-13.77,-13.93,-13.93,0,*6D
1512460892.29,52924,2.5,73116.5,-13.77,-13.93,-13.93,0,*6A
1512460893.57,52925,2.5,73110.0,-13.75,-13.79,-13.87,0,*68
1512460894.83,52926,2.5,73110.8,-13.75,-13.73,-13.79,0,*60
1512460896.07,52927,2.5,73102.3,-13.75,-13.73,-13.73,0,*6B
1512460897.33,52928,2.5,73108.3,-13.75,-13.69,-13.79,0,*65
1512460898.59,52929,2.5,73104.0,-13.77,-13.79,-13.83,0,*62
1512460899.84,52930,2.5,73110.0,-13.71,-13.73,-13.79,0,*63
1512460901.05,52931,2.5,73116.3,-13.69,-13.73,-13.73,0,*61
1512460902.31,52932,2.5,73118.3,-13.71,-13.93,-13.87,0,*6E
1512460903.57,52933,2.5,73118.0,-13.75,-13.93,-13.87,0,*6B
1512460904.83,52934,2.5,73126.0,-13.71,-13.93,-14.01,0,*61
1512460906.12,52935,2.5,73120.8,-13.71,-14.05,-14.05,0,*6C
1512460907.37,52936,2.5,73118.5,-13.71,-14.15,-14.15,0,*6F
1512460908.61,52937,2.5,73114.8,-13.71,-14.19,-14.33,0,*66
1512460909.86,52938,2.5,73112.3,-13.75,-14.19,-14.29,0,*66
1512460911.1,52939,2.5,73114.5,-13.71,-14.19,-14.19,0,*60
1512460912.34,52940,2.5,73110.5,-13.71,-14.19,-14.29,0,*6D
1512460913.58,52941,2.5,73108.8,-13.71,-14.19,-14.29,0,*6C
1512460914.83,52942,2.5,73112.3,-13.71,-14.15,-14.29,0,*63
1512460916.1,52943,2.5,73114.5,-13.75,-14.15,-14.05,0,*68
1512460917.35,52944,2.5,73112.5,-13.75,-14.15,-14.15,0,*6E
1512460918.6,52945,2.5,73112.8,-13.75,-14.15,-14.15,0,*6F
1512460919.85,52946,2.5,73120.5,-13.75,-14.15,-14.15,0,*6C
1512460921.15,52947,2.5,73114.3,-13.71,-14.05,-14.05,0,*69
1512460922.44,52948,2.5,73112.0,-13.71,-14.01,-14.05,0,*62
1512460923.73,52949,2.5,73112.8,-13.71,-14.05,-14.01,0,*63
1512460925.01,52950,2.5,73130.3,-13.69,-13.97,-14.01,0,*6E
1512460926.31,52951,2.5,73120.3,-13.75,-14.01,-14.01,0,*6A
1512460927.57,52952,2.5,73120.5,-13.71,-13.93,-14.05,0,*65
1512460928.83,52953,2.5,73116.8,-13.71,-13.93,-14.01,0,*60
1512460930.12,52954,2.5,73122.5,-13.71,-14.01,-14.01,0,*6B
1512460931.38,52955,2.5,73112.5,-13.71,-13.93,-14.05,0,*62
1512460932.68,52956,2.5,73114.3,-13.71,-14.01,-14.05,0,*6D
1512460933.97,52957,2.5,73112.8,-13.71,-14.01,-14.05,0,*6C
1512460935.26,52958,2.5,73116.5,-13.71,-14.01,-14.05,0,*63
1512460936.55,52959,2.5,73116.5,-13.71,-14.05,-14.05,0,*66
1512460937.82,52960,2.5,73114.0,-13.71,-14.01,-14.15,0,*69
1512460939.12,52961,2.5,73108.0,-13.71,-14.01,-14.05,0,*69
1512460940.36,52962,2.5,73108.5,-13.69,-14.01,-14.11,0,*66
1512460941.63,52963,2.5,73104.8,-13.71,-14.01,-14.15,0,*6A
1512460942.92,52964,2.5,73104.3,-13.71,-14.05,-14.05,0,*68
1512460944.19,52965,2.5,73102.5,-13.71,-14.05,-14.15,0,*68
1512460945.48,52966,2.5,73098.0,-13.71,-14.05,-14.05,0,*6A
1512460946.75,52967,2.5,73100.0,-13.69,-13.97,-14.01,0,*6A
1512460948.05,52968,2.5,73102.5,-13.71,-14.05,-14.01,0,*60
1512460949.32,52969,2.5,73106.8,-13.69,-13.97,-13.97,0,*6C
1512460950.58,52970,2.5,73104.3,-13.69,-13.87,-13.87,0,*64
1512460951.84,52971,2.5,73106.3,-13.71,-13.87,-13.93,0,*69
1512460953.12,52972,2.5,73106.5,-13.71,-13.87,-13.87,0,*6F
1512460954.36,52973,2.5,73106.8,-13.69,-13.83,-13.73,0,*68
1512460955.57,52974,2.5,73106.0,-13.69,-13.73,-13.73,0,*60
1512460956.78,52975,2.5,73108.0,-13.69,-13.73,-13.73,0,*61
1512460957.99,52976,2.5,73114.0,-13.69,-13.73,-13.73,0,*62
1512460959.2,52977,2.5,73106.0,-13.69,-13.73,-13.73,0,*63
1512460960.44,52978,2.5,73102.0,-13.67,-13.69,-13.73,0,*69
1512460961.67,52979,2.5,73096.3,-13.67,-13.73,-13.69,0,*68
1512460962.91,52980,2.5,73094.0,-13.67,-13.65,-13.73,0,*62
1512460964.15,52981,2.5,73096.0,-13.67,-13.73,-13.73,0,*64
1512460965.38,52982,2.5,73112.8,-13.67,-13.73,-13.73,0,*67
1512460966.64,52983,2.5,73092.5,-13.67,-13.73,-13.83,0,*69
1512460967.93,52984,2.5,73096.8,-13.67,-13.83,-13.87,0,*65
1512460969.22,52985,2.5,73102.8,-13.67,-13.87,-13.87,0,*60
1512460970.46,52986,2.5,73118.0,-13.65,-13.93,-13.97,0,*65
1512460971.76,52987,2.5,73126.0,-13.67,-13.97,-14.01,0,*6A
1512460973.06,52988,2.5,73108.8,-13.67,-13.97,-14.01,0,*65
1512460974.36,52989,2.5,73116.3,-13.67,-14.01,-14.01,0,*6C
1512460975.66,52990,2.5,73098.8,-13.67,-14.01,-13.97,0,*6C
1512460976.9,52991,2.5,73106.8,-13.65,-13.97,-14.11,0,*6E
1512460978.18,52992,2.5,73122.0,-13.65,-14.05,-14.05,0,*64
1512460979.45,52993,2.5,73122.5,-13.65,-14.05,-14.05,0,*65
1512460980.69,52994,2.5,73148.8,-13.67,-14.11,-14.23,0,*61
1512460981.94,52995,2.5,73120.5,-13.67,-14.15,-14.29,0,*6E
1512460983.18,52996,2.5,73122.8,-13.67,-14.29,-14.29,0,*62
1512460984.42,52997,2.5,73128.8,-13.67,-14.29,-14.29,0,*63
1512460985.64,52998,2.5,73128.0,-13.65,-14.23,-14.33,0,*6F
1512460986.93,52999,2.5,73140.5,-13.67,-14.43,-14.43,0,*6D
1512460988.17,53000,2.5,73136.8,-13.69,-14.37,-14.43,0,*68
1512460989.4,53001,2.5,73128.5,-13.69,-14.43,-14.37,0,*69
1512460990.65,53002,2.5,73116.8,-13.67,-14.37,-14.37,0,*67
1512460991.9,53003,2.5,73124.5,-13.69,-14.43,-14.43,0,*68
1512460993.19,53004,2.5,73144.0,-13.71,-14.43,-14.43,0,*66
1512460994.45,53005,2.5,73132.5,-13.69,-14.43,-14.51,0,*6D
1512460995.72,53006,2.5,73134.3,-13.71,-14.47,-14.61,0,*60
1512460997.02,53007,2.5,73144.8,-13.71,-14.47,-14.55,0,*66
1512460998.31,53008,2.5,73136.0,-13.71,-14.47,-14.55,0,*69
1512460999.58,53009,2.5,73124.3,-13.69,-14.43,-14.51,0,*61
1512461000.87,53010,2.5,73116.5,-13.71,-14.55,-14.55,0,*63
1512461002.14,53011,2.5,73116.3,-13.71,-14.47,-14.61,0,*66
1512461003.44,53012,2.5,73136.0,-13.71,-14.47,-14.55,0,*62
1512461004.73,53013,2.5,73136.5,-13.71,-14.47,-14.55,0,*63
1512461006.03,53014,2.5,73134.0,-13.75,-14.47,-14.55,0,*60
1512461007.33,53015,2.5,73132.8,-13.75,-14.47,-14.55,0,*61
1512461008.63,53016,2.5,73134.5,-13.75,-14.43,-14.47,0,*65
1512461009.9,53017,2.5,73134.3,-13.77,-14.51,-14.51,0,*62
1512461011.2,53018,2.5,73134.5,-13.75,-14.47,-14.47,0,*6F
1512461012.5,53019,2.5,73128.8,-13.75,-14.43,-14.47,0,*6A
1512461013.75,53020,2.5,73128.5,-13.77,-14.47,-14.61,0,*62
1512461014.99,53021,2.5,73130.8,-13.77,-14.43,-14.61,0,*67
1512461016.27,53022,2.5,73132.5,-13.77,-14.47,-14.51,0,*63
1512461017.52,53023,2.5,73138.3,-13.77,-14.37,-14.47,0,*62
1512461018.74,53024,2.5,73140.3,-13.77,-14.33,-14.37,0,*66
1512461019.95,53025,2.5,73138.5,-13.77,-14.33,-14.33,0,*63
1512461021.19,53026,2.5,73136.3,-13.77,-14.05,-14.11,0,*65
1512461022.45,53027,2.5,73136.3,-13.75,-13.87,-13.93,0,*66
1512461023.74,53028,2.5,73138.5,-13.75,-13.87,-13.87,0,*6C
1512461025.02,53029,2.5,73134.5,-13.75,-13.79,-13.87,0,*6C
1512461026.28,53030,2.5,73128.3,-13.75,-13.79,-13.73,0,*6F
1512461027.52,53031,2.5,73124.0,-13.71,-13.69,-13.69,0,*60
1512461028.75,53032,2.5,73122.0,-13.71,-13.69,-13.69,0,*63
1512461029.96,53033,2.5,73118.3,-13.69,-13.65,-13.55,0,*68
1512461031.24,53034,2.5,73118.8,-13.71,-13.79,-13.61,0,*6C
1512461032.45,53035,2.5,73100.8,-13.69,-13.69,-13.69,0,*6D
1512461033.66,53036,2.5,73086.8,-13.69,-13.69,-13.69,0,*6E
1512461034.87,53037,2.5,73082.3,-13.69,-13.65,-13.65,0,*6F
1512461036.07,53038,2.5,73076.3,-13.69,-13.65,-13.65,0,*60
1512461037.28,53039,2.5,73074.8,-13.69,-13.65,-13.65,0,*61
1512461038.49,53040,2.5,73082.0,-13.69,-13.69,-13.69,0,*6F
1512461039.7,53041,2.5,73088.8,-13.69,-13.73,-13.73,0,*6E
1512461040.91,53042,2.5,73096.0,-13.65,-13.69,-13.69,0,*61
1512461042.13,53043,2.5,73102.8,-13.65,-13.69,-13.73,0,*6B
1512461043.34,53044,2.5,73100.8,-13.65,-13.73,-13.73,0,*67
1512461044.58,53045,2.5,73106.3,-13.67,-13.73,-13.73,0,*64
1512461045.79,53046,2.5,73108.8,-13.65,-13.69,-13.73,0,*6E
1512461047.03,53047,2.5,73112.8,-13.67,-13.69,-13.73,0,*6D
1512461048.24,53048,2.5,73116.3,-13.65,-13.69,-13.69,0,*6B
1512461049.47,53049,2.5,73120.0,-13.65,-13.69,-13.79,0,*6B
1512461050.73,53050,2.5,73126.3,-13.65,-13.79,-13.79,0,*62
1512461051.99,53051,2.5,73126.3,-13.65,-13.83,-13.79,0,*66
1512461053.26,53052,2.5,73124.5,-13.65,-13.83,-13.83,0,*60
1512461054.53,53053,2.5,73130.0,-13.65,-13.83,-13.83,0,*61
1512461055.77,53054,2.5,73130.8,-13.65,-13.83,-13.93,0,*67
1512461056.98,53055,2.5,73130.5,-13.63,-13.93,-13.93,0,*61
1512461058.22,53056,2.5,73132.8,-13.65,-13.93,-13.97,0,*60
1512461059.5,53057,2.5,73138.5,-13.65,-13.97,-14.05,0,*69
1512461060.73,53058,2.5,73138.3,-13.65,-13.93,-14.05,0,*62
1512461061.97,53059,2.5,73130.5,-13.65,-13.93,-14.05,0,*63
1512461063.22,53060,2.5,73124.8,-13.65,-14.05,-14.11,0,*64
1512461064.46,53061,2.5,73120.8,-13.65,-14.05,-14.11,0,*65
1512461065.73,53062,2.5,73118.0,-13.65,-13.97,-14.05,0,*6F
1512461067.01,53063,2.5,73122.0,-13.63,-14.05,-14.05,0,*64
1512461068.28,53064,2.5,73120.8,-13.65,-13.97,-14.05,0,*69
1512461069.56,53065,2.5,73114.5,-13.65,-13.97,-13.97,0,*64
1512461070.8,53066,2.5,73112.3,-13.65,-13.97,-13.93,0,*63
1512461072.07,53067,2.5,73118.8,-13.65,-14.01,-13.97,0,*6E
1512461073.35,53068,2.5,73128.5,-13.65,-13.97,-14.05,0,*65
1512461074.62,53069,2.5,73132.3,-13.65,-14.05,-14.05,0,*68
1512461075.86,53070,2.5,73138.3,-13.65,-14.05,-14.11,0,*65
1512461077.11,53071,2.5,73136.3,-13.67,-14.11,-14.15,0,*67
1512461078.33,53072,2.5,73142.3,-13.65,-14.11,-14.19,0,*6A
1512461079.55,53073,2.5,73138.3,-13.65,-14.23,-14.37,0,*66
1512461080.79,53074,2.5,73142.3,-13.65,-14.33,-14.51,0,*60
1512461082.07,53075,2.5,73140.0,-13.65,-14.47,-14.47,0,*65
1512461083.34,53076,2.5,73138.5,-13.67,-14.51,-14.61,0,*67
1512461084.61,53077,2.5,73130.3,-13.67,-14.55,-14.61,0,*62
1512461085.88,53078,2.5,73130.3,-13.67,-14.55,-14.61,0,*6D
1512461087.12,53079,2.5,73122.3,-13.65,-14.55,-14.69,0,*66
1512461088.36,53080,2.5,73128.0,-13.71,-14.61,-14.65,0,*6E
1512461089.6,53081,2.5,73122.3,-13.69,-14.55,-14.61,0,*65
1512461090.86,53082,2.5,73114.8,-13.71,-14.55,-14.65,0,*6B
1512461092.13,53083,2.5,73112.3,-13.69,-14.51,-14.51,0,*60
1512461093.37,53084,2.5,73110.5,-13.69,-14.37,-14.43,0,*64
1512461094.6,53085,2.5,73118.8,-13.71,-14.29,-14.29,0,*6F
1512461095.85,53086,2.5,73104.8,-13.71,-14.15,-14.15,0,*6C
1512461097.13,53087,2.5,73110.8,-13.71,-13.87,-13.87,0,*6D
1512461098.34,53088,2.5,73120.3,-13.69,-13.69,-13.73,0,*60
1512461099.55,53089,2.5,73122.8,-13.69,-13.65,-13.65,0,*6A
1512461100.76,53090,2.5,73126.3,-13.69,-13.65,-13.65,0,*62
1512461102.01,53091,2.5,73126.3,-13.67,-13.51,-13.51,0,*6D
1512461103.25,53092,2.5,73128.3,-13.67,-13.51,-13.51,0,*6E
1512461104.49,53093,2.5,73124.8,-13.67,-13.65,-13.55,0,*6C
1512461105.76,53094,2.5,73126.8,-13.65,-13.61,-13.61,0,*6A
1512461107.0,53095,2.5,73124.3,-13.65,-13.65,-13.61,0,*6F
1512461108.21,53096,2.5,73128.0,-13.65,-13.65,-13.69,0,*64
1512461109.42,53097,2.5,73126.5,-13.65,-13.69,-13.65,0,*65
1512461110.66,53098,2.5,73126.3,-13.65,-13.65,-13.61,0,*62
1512461111.9,53099,2.5,73120.5,-13.65,-13.65,-13.61,0,*63
1512461113.11,53100,2.5,73118.5,-13.63,-13.69,-13.69,0,*60
1512461114.32,53101,2.5,73118.0,-13.63,-13.65,-13.69,0,*6D
1512461115.59,53102,2.5,73112.3,-13.61,-13.55,-13.61,0,*67
1512461116.86,53103,2.5,73114.3,-13.63,-13.61,-13.61,0,*63
1512461118.1,53104,2.5,73106.0,-13.61,-13.55,-13.55,0,*66
1512461119.34,53105,2.5,73098.0,-13.61,-13.55,-13.55,0,*67
1512461120.59,53106,2.5,73092.5,-13.61,-13.55,-13.55,0,*64
1512461121.85,53107,2.5,73092.8,-13.61,-13.55,-13.61,0,*62
1512461123.07,53108,2.5,73094.8,-13.63,-13.69,-13.65,0,*64
1512461124.31,53109,2.5,73102.0,-13.61,-13.65,-13.65,0,*6B
1512461125.54,53110,2.5,73114.5,-13.61,-13.65,-13.65,0,*63
1512461126.78,53111,2.5,73120.0,-13.61,-13.65,-13.65,0,*62
1512461128.02,53112,2.5,73128.8,-13.61,-13.65,-13.65,0,*61
1512461129.28,53113,2.5,73128.0,-13.61,-13.61,-13.65,0,*64
1512461130.5,53114,2.5,73126.5,-13.59,-13.65,-13.55,0,*6F
1512461131.71,53115,2.5,73118.5,-13.59,-13.65,-13.65,0,*6D
1512461132.93,53116,2.5,73116.3,-13.59,-13.65,-13.65,0,*6E
1512461134.14,53117,2.5,73108.3,-13.59,-13.55,-13.65,0,*6C
1512461135.35,53118,2.5,73116.8,-13.59,-13.65,-13.73,0,*67
1512461136.59,53119,2.5,73130.5,-13.59,-13.65,-13.79,0,*6C
1512461137.82,53120,2.5,73126.5,-13.59,-13.65,-13.79,0,*66
1512461139.07,53121,2.5,73120.8,-13.57,-13.73,-13.73,0,*64
1512461140.3,53122,2.5,73118.3,-13.59,-13.87,-13.93,0,*6C
1512461141.57,53123,2.5,73118.0,-13.59,-13.87,-13.87,0,*68
1512461142.83,53124,2.5,73124.3,-13.59,-13.79,-13.87,0,*6E
1512461144.09,53125,2.5,73126.8,-13.59,-13.87,-13.87,0,*6E
1512461145.39,53126,2.5,73126.8,-13.57,-13.83,-13.83,0,*63
1512461146.69,53127,2.5,73130.8,-13.57,-13.87,-13.87,0,*62
1512461147.9,53128,2.5,73120.5,-13.59,-13.93,-13.93,0,*63
1512461149.13,53129,2.5,73116.0,-13.59,-13.93,-13.87,0,*67
1512461150.43,53130,2.5,73122.3,-13.57,-13.87,-13.87,0,*64
1512461151.69,53131,2.5,73118.3,-13.59,-13.87,-13.87,0,*6B
1512461152.93,53132,2.5,73112.8,-13.59,-13.87,-13.93,0,*6D
1512461154.14,53133,2.5,73118.5,-13.59,-13.93,-13.93,0,*69
1512461155.44,53134,2.5,73124.8,-13.57,-13.87,-13.97,0,*61
1512461156.71,53135,2.5,73116.0,-13.59,-14.01,-14.05,0,*6B
1512461157.95,53136,2.5,73112.3,-13.59,-13.87,-13.93,0,*69
1512461159.22,53137,2.5,73110.8,-13.59,-13.87,-14.01,0,*64
1512461160.46,53138,2.5,73112.8,-13.59,-13.93,-14.05,0,*6A
1512461161.71,53139,2.5,73112.0,-13.59,-13.93,-14.01,0,*6F
1512461162.95,53140,2.5,73116.0,-13.59,-13.93,-14.05,0,*65
1512461164.22,53141,2.5,73114.3,-13.59,-14.01,-14.05,0,*68
1512461165.5,53142,2.5,73120.3,-13.59,-14.05,-14.05,0,*6F
1512461166.77,53143,2.5,73116.3,-13.59,-14.01,-14.05,0,*6A
1512461168.01,53144,2.5,73118.3,-13.59,-13.93,-14.05,0,*61
1512461169.29,53145,2.5,73126.5,-13.59,-14.05,-14.05,0,*68
1512461170.59,53146,2.5,73128.5,-13.61,-14.05,-14.05,0,*60
1512461171.86,53147,2.5,73130.0,-13.63,-13.97,-14.05,0,*6F
1512461173.16,53148,2.5,73128.5,-13.61,-14.05,-14.05,0,*6E
1512461174.43,53149,2.5,73130.3,-13.61,-13.93,-14.01,0,*63
1512461175.69,53150,2.5,73128.5,-13.61,-13.93,-14.01,0,*6B
1512461176.95,53151,2.5,73124.5,-13.61,-13.87,-13.93,0,*63
1512461178.24,53152,2.5,73130.0,-13.61,-13.79,-13.87,0,*64
1512461179.53,53153,2.5,73128.5,-13.61,-13.79,-13.87,0,*65
1512461180.81,53154,2.5,73126.3,-13.61,-13.79,-13.87,0,*62
1512461182.08,53155,2.5,73130.0,-13.59,-13.79,-13.87,0,*68
1512461183.31,53156,2.5,73128.8,-13.59,-13.87,-13.93,0,*6F
1512461184.58,53157,2.5,73120.3,-13.59,-14.01,-13.87,0,*62
1512461185.86,53158,2.5,73118.0,-13.59,-14.01,-14.05,0,*60
1512461187.11,53159,2.5,73128.5,-13.59,-14.01,-14.19,0,*6C
1512461188.38,53160,2.5,73134.5,-13.61,-14.05,-14.15,0,*65
1512461189.63,53161,2.5,73118.3,-13.61,-14.15,-14.15,0,*65
1512461190.91,53162,2.5,73114.3,-13.61,-14.05,-14.19,0,*6B
1512461192.16,53163,2.5,73118.3,-13.59,-14.15,-14.05,0,*6D
1512461193.41,53164,2.5,73128.0,-13.63,-14.11,-14.05,0,*67
1512461194.68,53165,2.5,73132.0,-13.59,-14.01,-14.01,0,*6A
1512461195.95,53166,2.5,73128.8,-13.61,-13.93,-14.05,0,*6A
1512461197.19,53167,2.5,73120.3,-13.59,-13.93,-14.05,0,*60
1512461198.46,53168,2.5,73122.8,-13.61,-14.01,-14.19,0,*65
1512461199.73,53169,2.5,73124.8,-13.61,-14.05,-14.19,0,*60
1512461200.97,53170,2.5,73134.8,-13.61,-14.29,-14.33,0,*6E
1512461202.22,53171,2.5,73134.3,-13.63,-14.37,-14.51,0,*66
1512461203.49,53172,2.5,73134.0,-13.63,-14.51,-14.51,0,*65
1512461204.75,53173,2.5,73138.5,-13.63,-14.51,-14.65,0,*63
1512461206.02,53174,2.5,73138.5,-13.63,-14.51,-14.55,0,*67
1512461207.3,53175,2.5,73136.3,-13.63,-14.47,-14.47,0,*62
1512461208.52,53176,2.5,73136.3,-13.65,-14.33,-14.33,0,*67
1512461209.79,53177,2.5,73142.0,-13.63,-14.05,-14.05,0,*60
1512461211.03,53178,2.5,73140.5,-13.63,-13.93,-13.83,0,*6E
1512461212.26,53179,2.5,73140.0,-13.61,-13.73,-13.73,0,*6C
1512461213.52,53180,2.5,73144.8,-13.61,-13.73,-13.79,0,*60
1512461214.79,53181,2.5,73142.3,-13.61,-13.79,-13.73,0,*61
1512461216.02,53182,2.5,73140.5,-13.63,-13.73,-13.79,0,*60
1512461217.26,53183,2.5,73138.3,-13.63,-13.69,-13.79,0,*6A
1512461218.49,53184,2.5,73140.3,-13.61,-13.55,-13.47,0,*6D
1512461219.73,53185,2.5,73138.8,-13.61,-13.19,-13.15,0,*63
1512461221.03,53186,2.5,73136.5,-13.57,-12.57,-12.53,0,*6D
1512461222.28,53187,2.5,73136.3,-13.57,-12.03,-12.03,0,*68
1512461223.55,53188,2.5,73134.3,-13.55,-11.89,-11.89,0,*65
1512461224.84,53189,2.5,73138.0,-13.49,-11.93,-11.81,0,*6A
1512461226.12,53190,2.5,73138.8,-13.47,-11.93,-11.89,0,*64
1512461227.38,53191,2.5,73136.8,-13.47,-12.15,-12.15,0,*6E
1512461228.6,53192,2.5,73142.0,-13.47,-12.43,-12.43,0,*6D
1512461229.89,53193,2.5,73144.5,-13.45,-12.61,-12.57,0,*6B
1512461231.15,53194,2.5,73146.8,-13.43,-12.65,-12.65,0,*6F
1512461232.41,53195,2.5,73144.3,-13.43,-12.79,-12.79,0,*6E
1512461233.66,53196,2.5,73138.5,-13.41,-12.89,-12.89,0,*6F
1512461234.92,53197,2.5,73130.0,-13.41,-12.97,-13.01,0,*60
1512461236.13,53198,2.5,73126.8,-13.43,-13.15,-13.07,0,*60
1512461237.37,53199,2.5,73130.5,-13.41,-13.15,-13.15,0,*60
1512461238.64,53200,2.5,73134.5,-13.41,-13.23,-13.29,0,*69
1512461239.91,53201,2.5,73138.0,-13.41,-13.23,-13.29,0,*68
1512461241.17,53202,2.5,73134.5,-13.41,-13.29,-13.43,0,*6D
1512461242.43,53203,2.5,73132.5,-13.37,-13.33,-13.43,0,*66
1512461243.72,53204,2.5,73130.0,-13.37,-13.33,-13.37,0,*62
1512461244.98,53205,2.5,73132.8,-13.37,-13.37,-13.43,0,*64
1512461246.25,53206,2.5,73132.5,-13.41,-13.37,-13.47,0,*62
1512461247.48,53207,2.5,73124.5,-13.41,-13.47,-13.47,0,*64
1512461248.71,53208,2.5,73118.0,-13.41,-13.47,-13.47,0,*6B
1512461249.97,53209,2.5,73104.3,-13.37,-13.33,-13.43,0,*6C
1512461251.21,53210,2.5,73100.5,-13.41,-13.47,-13.47,0,*62
1512461252.44,53211,2.5,73104.3,-13.41,-13.47,-13.47,0,*63
1512461253.67,53212,2.5,73110.5,-13.41,-13.47,-13.47,0,*60
1512461254.91,53213,2.5,73120.5,-13.37,-13.43,-13.55,0,*67
1512461256.15,53214,2.5,73136.5,-13.41,-13.55,-13.69,0,*69
1512461257.39,53215,2.5,73140.8,-13.41,-13.55,-13.73,0,*63
1512461258.66,53216,2.5,73136.3,-13.41,-13.61,-13.69,0,*6C
1512461259.93,53217,2.5,73124.5,-13.41,-13.55,-13.61,0,*62
1512461261.2,53218,2.5,73128.0,-13.41,-13.55,-13.61,0,*6D
1512461262.46,53219,2.5,73122.8,-13.41,-13.61,-13.69,0,*63
1512461263.7,53220,2.5,73122.0,-13.41,-13.69,-13.73,0,*6A
1512461264.94,53221,2.5,73128.5,-13.43,-13.73,-13.79,0,*68
1512461266.17,53222,2.5,73118.8,-13.43,-13.79,-13.93,0,*65
1512461267.46,53223,2.5,73112.8,-13.41,-13.87,-13.83,0,*66
1512461268.76,53224,2.5,73108.5,-13.41,-13.87,-13.97,0,*64
1512461270.06,53225,2.5,73106.8,-13.41,-13.87,-14.01,0,*6D
1512461271.33,53226,2.5,73118.3,-13.43,-14.05,-14.05,0,*65
1512461272.6,53227,2.5,73128.0,-13.43,-14.01,-14.05,0,*60
1512461273.87,53228,2.5,73126.0,-13.43,-14.01,-14.05,0,*6F
1512461275.11,53229,2.5,73124.0,-13.43,-13.93,-14.05,0,*62
1512461276.41,53230,2.5,73122.0,-13.45,-14.01,-14.05,0,*60
1512461277.7,53231,2.5,73120.5,-13.45,-14.01,-14.05,0,*61
1512461278.94,53232,2.5,73120.3,-13.43,-13.93,-14.01,0,*6C
1512461280.25,53233,2.5,73126.0,-13.45,-14.01,-14.01,0,*67
1512461281.54,53234,2.5,73130.0,-13.45,-14.01,-14.05,0,*64
1512461282.81,53235,2.5,73134.5,-13.45,-13.93,-14.01,0,*6D
1512461284.07,53236,2.5,73132.0,-13.45,-13.93,-14.05,0,*6A
1512461285.34,53237,2.5,73130.5,-13.45,-13.93,-14.01,0,*6F
1512461286.57,53238,2.5,73132.8,-13.45,-13.93,-13.93,0,*6C
1512461287.86,53239,2.5,73132.8,-13.45,-13.87,-13.87,0,*6D
1512461289.12,53240,2.5,73130.8,-13.45,-13.79,-13.93,0,*67
1512461290.38,53241,2.5,73130.0,-13.45,-13.87,-13.93,0,*67
1512461291.64,53242,2.5,73134.3,-13.45,-13.87,-13.93,0,*64
1512461292.9,53243,2.5,73130.3,-13.47,-13.79,-13.79,0,*62
1512461294.13,53244,2.5,73122.3,-13.47,-13.73,-13.79,0,*6F
1512461295.35,53245,2.5,73122.5,-13.47,-13.73,-13.73,0,*64
1512461296.62,53246,2.5,73126.3,-13.47,-13.61,-13.61,0,*67
1512461297.89,53247,2.5,73124.3,-13.47,-13.61,-13.61,0,*66
1512461299.13,53248,2.5,73122.0,-13.47,-13.61,-13.51,0,*6A
1512461300.35,53249,2.5,73124.8,-13.43,-13.51,-13.51,0,*6C
1512461301.6,53250,2.5,73126.0,-13.45,-13.51,-13.51,0,*62
1512461302.87,53251,2.5,73122.0,-13.45,-13.51,-13.61,0,*60
1512461304.11,53252,2.5,73120.0,-13.45,-13.65,-13.73,0,*67
1512461305.39,53253,2.5,73116.5,-13.45,-13.79,-13.79,0,*61
1512461306.65,53254,2.5,73124.5,-13.43,-13.79,-13.87,0,*61
1512461307.94,53255,2.5,73126.3,-13.45,-13.79,-13.87,0,*66
1512461309.22,53256,2.5,73122.3,-13.45,-13.87,-13.87,0,*64
1512461310.48,53257,2.5,73128.8,-13.45,-13.87,-13.93,0,*60